Location: Franzen
(48.6167°N, 15.3833°E)
Time: 09:54:10
(UTC+00:00)

Cosmos 2082 - Pass Details

Date: 22 April 2021
Orbit: 834 x 855 km, 71.0° (Epoch: 16 May)

Event Time Altitude Azimuth Distance (km) Brightness Sun altitude
Exits shadow 20:37:19 - 211° (SSW) 2,553 6.0 -21.5°
Reaches altitude 10° 20:37:37 10° 212° (SSW) 2,438 5.9 -21.6°
Maximum altitude 20:43:13 79° 299° (WNW) 857 3.7 -22.1°
Drops below altitude 10° 20:48:52 10° 26° (NNE) 2,459 6.5 -22.6°
Sets 20:51:20 0° 28° (NNE) 3,400 7.2 -22.9°
